Train No Train Name From To Distance Stops avg_speed (km/hr)
12561 Swatantrata Sainani Express Jaynagar New Delhi 1241 20 55
A Train's "Departure" Station, "Arrival" Station and "Distance" may vary. Although we have verified some of this data from enquiry.indianrail.gov.in
Train No Start Date (yyyy-mm-dd) Status Delay Time Source
12561 2017-01-01 Late 14 hours 05 minutes Source
12561 2017-01-09 Late 10 hours 02 minutes Source
12561 2017-01-18 Late 14 hours 52 minutes Source
12561 2017-01-20 Late 10 hours 25 minutes Source
12561 2017-01-24 Late 14 hours 45 minutes Source
12561 2017-01-29 Late 11 hours 00 minutes Source
12561 2017-02-07 Late 12 hours 40 minutes Source
12561 2017-02-08 Late 10 hours 40 minutes Source
12561 2017-02-13 Late 11 hours 55 minutes Source
12561 2017-02-15 Late 13 hours 55 minutes Source
12561 2017-02-19 Late 11 hours 25 minutes Source
12561 2017-02-20 Late 11 hours 25 minutes Source
12561 2017-03-02 Late 11 hours 40 minutes Source
12561 2017-03-04 Late 11 hours 55 minutes Source
12561 2017-03-05 Late 14 hours 05 minutes Source
12561 2017-03-07 Late 14 hours 30 minutes Source
12561 2017-03-08 Late 11 hours 01 minutes Source
12561 2017-03-11 Late 12 hours 00 minutes Source
12561 2017-03-12 Late 12 hours 30 minutes Source
12561 2017-03-14 Late 13 hours 00 minutes Source
12561 2017-03-15 Late 13 hours 00 minutes Source
12561 2017-03-23 Late 11 hours 15 minutes Source
12561 2017-04-12 Late 10 hours 25 minutes Source
12561 2017-04-15 Late 13 hours 05 minutes Source
12561 2017-04-17 Late 10 hours 15 minutes Source
12561 2017-04-22 Late 11 hours 35 minutes Source
12561 2017-04-25 Late 11 hours 20 minutes Source
12561 2017-04-28 Late 14 hours 50 minutes Source
12561 2017-04-29 Late 14 hours 00 minutes Source
12561 2017-04-30 Late 14 hours 30 minutes Source
Page 1 of 1, showing 30 records out of 30 total